Regional Weather Roundup
Issued by NWS

Home | Current Version | Previous Version | Graphics & Text | Print | Product List | Glossary On
Versions: 1 2 3 4 5 6 7 8 9 10 11 12 13 14 15 16 17 18 19 20 21 22 23 24 25 26 27 28 29 30 31 32 33 34 35 36 37 38 39 40 41 42 43 44 45 46 47 48 49 50
000
ASUS43 KMPX 170301
RWRMN
WEATHER ROUNDUP FOR MINNESOTA
NATIONAL WEATHER SERVICE TWIN CITIES/CHANHASSEN MN
1000 PM CDT WED APR 16 2014


NOTE: "FAIR" INDICATES FEW OR NO CLOUDS BELOW 12,000 FEET WITH NO
SIGNIFICANT WEATHER AND/OR OBSTRUCTIONS TO VISIBILITY. N/A MEANS
CURRENT SKY AND/OR WEATHER CONDITIONS ARE NOT AVAILABLE.

MNZ060>063-068>070-170400-
   Twin Cities Metro

CITY           SKY/WX    TMP DP  RH WIND       PRES   REMARKS
TWIN CITIES    LGT RAIN  32  32 100 N13       29.93R FOG     WCI  22
ST PAUL        RAIN      35  33  92 N7        29.94S FOG     WCI  29
CRYSTAL        LGT SNOW  30  28  92 N15G23    29.94R FOG     WCI  19
BLAINE         LGT SNOW  32  30  93 N14G21    29.96R VSB 1   WCI  22
EDEN PRAIRIE   FRZ RAIN  33  31  92 N12       29.91R FOG     WCI  24
LAKEVILLE      RAIN      34  34 100 N9        29.89S WCI  26
SOUTH ST PAUL  RAIN      38  37  96 N10       29.91S
LAKE ELMO      RAIN      36  34  93 NE9G16    29.94R
$$
MNZ001>005-007-008-013>017-022>024-027-028-170400-
   Northwest Minnesota

CITY           SKY/WX    TMP DP  RH WIND       PRES   REMARKS
BEMIDJI        CLEAR     26  17  66 NE6       30.18S WCI  20
HALLOCK        CLOUDY    28  16  59 N14       30.31R WCI  17
ROSEAU         CLEAR     27  16  63 N7        30.28R WCI  19
WARROAD        CLEAR     28  10  47 N8        30.29R WCI  20
THIEF RVR FALL CLEAR     30   9  40 N12       30.26R WCI  21
CROOKSTON      CLEAR     30  16  55 NE12      30.27R WCI  21
FOSSTON        CLEAR     28  10  47 NE8       30.21R WCI  20
DETROIT LAKES  CLEAR     30  21  69 NE5       30.18R WCI  25
MOORHEAD       CLEAR     32  27  80 NE2       30.21R
PARK RAPIDS    CLEAR     27  20  75 NE9       30.16R WCI  18
$$
MNZ006-009>011-018-025>026-170400-
   North Central Minnesota

CITY           SKY/WX    TMP DP  RH WIND       PRES   REMARKS
BAUDETTE       CLEAR     29   8  41 NE8       30.26R WCI  21
FLAG ISLAND    CLEAR     27   9  46 NE8       30.29R WCI  18
INTL FALLS     CLEAR     30   7  37 NE5       30.23S WCI  25
WASKISH        CLEAR     28   7  40 N5        30.23R WCI  23
BIG FORK       CLOUDY    28  16  59 E8        30.22R WCI  20
LONGVILLE      MOCLDY    25  19  80 NE8       30.18R WCI  16
GRAND RAPIDS   MOCLDY    25  18  74 NE7       30.18R WCI  17
CRANE LAKE     MOCLDY    25  10  54 CALM      30.27R
ORR            CLOUDY    27  16  63 CALM      30.21R
COOK           CLOUDY    25  19  80 E5        30.22S WCI  19
$$
MNZ012-019>021-037-170400-
   Northeast Minnesota

CITY           SKY/WX    TMP DP  RH WIND       PRES   REMARKS
DULUTH         LGT SNOW  26  22  84 NE17G31   30.13S VSB 3/4 WCI  13
ELY            CLOUDY    23  19  86 NE5       30.22S WCI  17
HIBBING        CLOUDY    26  19  74 NE12      30.19S WCI  16
EVELETH        FLURRIES  27  21  80 NE8G18    30.20S WCI  18
DULUTH HARBOR  LGT SNOW  28  27  93 NE29      30.17S VSB 1   WCI  13
TWO HARBORS    LGT SNOW  27  21  80 NE20G26   30.15S WCI  13
SILVER BAY     LGT SNOW  25  25 100 NE14G22   30.19S WCI  13
GRAND MARAIS     N/A     28  22  78 NE14      30.28S WCI  17
G MARAIS ARPRT LGT SNOW  21  16  79 NE14      30.22S WCI   8
$$
MNZ029>031-032-039>041-046>048-054>057-064-170400-
   West Central Minnesota

CITY           SKY/WX    TMP DP  RH WIND       PRES   REMARKS
FERGUS FALLS   CLEAR     30  19  64 NE10      30.16R WCI  21
WHEATON        CLEAR     30  25  80 N8        30.20R WCI  23
MORRIS         PTCLDY    28  23  80 N18G29    30.13R WCI  16
ALEXANDRIA     CLOUDY    28  21  75 NE16G26   30.12R WCI  16
ELBOW LAKE     CLOUDY    29  22  74 NE12      30.15R WCI  19
WADENA         CLEAR     25  19  80 NE7       30.15R WCI  17
GLENWOOD       CLOUDY    27  21  80 N20G28    30.10R WCI  13
APPLETON       CLOUDY    30  25  80 N22       30.12R WCI  17
BENSON         CLOUDY    28  23  80 NE16G25   30.11R WCI  17
ORTONVILLE     CLOUDY    28  21  74 N22       30.14R WCI  15
MADISON        CLOUDY    34  27  75 N17G24    30.12R WCI  23
WILLMAR        MIX PCPN  28  25  86 N24G31    30.06R WCI  14
$$
MNZ033>034-036-042>043-049>051-058-059-170400-
   Central Minnesota

CITY           SKY/WX    TMP DP  RH WIND       PRES   REMARKS
ST CLOUD       LGT SNOW  29  24  82 N14G21    30.04R WCI  18
SAUK CENTRE    CLOUDY    28  22  79 N20G28    30.08R WCI  14
PAYNESVILLE    CLOUDY    28  24  84 N18G29    30.05R WCI  15
AITKIN         FLURRIES  28  21  74 N12G23    30.12S WCI  18
PINE RIVER     CLOUDY    27  21  80 NE8       30.19R WCI  18
BRAINERD       CLOUDY    31  21  66 NE16G23   30.13R WCI  20
STAPLES        CLOUDY    27  21  80 NE10G16   30.14R WCI  17
LONG PRAIRIE   CLOUDY    27  21  80 N15G23    30.10R WCI  15
LITTLE FALLS   CLOUDY    28  21  74 N7        30.09S WCI  21
LITCHFIELD     CLOUDY    28  27  93 N16G28    30.02R WCI  17
BUFFALO        LGT SNOW  29  27  90 N16G22    30.00R WCI  17
MAPLE LAKE     MIX PCPN  30  28  92 N18G26    30.02R WCI  18
$$
MNZ037-044-045-052-053-170400-
   East Central Minnesota

CITY           SKY/WX    TMP DP  RH WIND       PRES   REMARKS
PRINCETON      LGT SNOW  28  27  93 N16G22    30.04R WCI  17
MORA           LGT SNOW  27  23  86 NE8G17    30.07R WCI  18
CAMBRIDGE      LGT SNOW  30  25  80 N13G18    30.00R WCI  20
RUSH CITY      MIX PCPN  28  27  93 NE10      30.03R WCI  19
MOOSE LAKE     LGT SNOW  28  25  86 NE15G25   30.09S WCI  17
HINCKLEY       LGT SNOW  28  28 100 N16G23    30.06S WCI  17
CLOQUET        LGT SNOW  27  25  93 NE15G23   30.13R WCI  15
MCGREGOR       CLOUDY    28  25  86 NE13G18   30.14R WCI  18
$$
MNZ071>073-080-081-089-090-097-098-170400-
   Southwest Minnesota

CITY           SKY/WX    TMP DP  RH WIND       PRES   REMARKS
MONTEVIDEO     CLOUDY    28  25  86 NE20G26   30.10R WCI  15
GRANITE FALLS  CLOUDY    29  25  83 N17G24    30.08R WCI  17
CANBY          CLOUDY    30  26  84 N17G23    30.12R WCI  18
MARSHALL       CLOUDY    30  23  74 N22       30.06R WCI  17
REDWOOD FALLS  CLOUDY    29  25  85 N18G25    30.02R WCI  16
OLIVIA         CLOUDY    30  28  93 N16       30.02R FOG     WCI  19
PIPESTONE      CLOUDY    28  27  93 N15G24    30.04R WCI  17
WINDOM         MIX PCPN  28  28 100 N28       29.97R WCI  13
WORTHINGTON    CLOUDY   N/A N/A N/A N29       30.00R
JACKSON        CLOUDY    32  28  86 N17G31    29.95R FOG     WCI  21
TRACY          CLOUDY    29  27  92 N20G25    30.04R WCI  17
SLAYTON        CLOUDY    28  27  98 N24G32    30.02R WCI  13
$$
MNZ065>067-074>077-082>085-091>093-170400-
   South Central Minnesota

CITY           SKY/WX    TMP DP  RH WIND       PRES   REMARKS
MANKATO        CLOUDY    34  34 100 N18G24    29.89R WCI  23
NEW ULM        CLOUDY    30  30 100 N14G21    29.95R WCI  20
ST JAMES       LGT SNOW  32  30  93 NW20      29.95R WCI  20
FAIRMONT       CLOUDY    32  28  86 NW22G29   29.91R WCI  19
GLENCOE        LGT SNOW  31  27  86 N14G25    29.95R WCI  21
FARIBAULT      RAIN      39  34  81 N10G17    29.86S
OWATONNA       RAIN      39  37  93 NE14      29.83F
WASECA         LGT SNOW  37  36  93 N15       29.85S
ALBERT LEA     LGT RAIN  43  43 100 N9        29.79S
$$
MNZ078>079-086>088-094>096-170400-
   Southeast Minnesota

CITY           SKY/WX    TMP DP  RH WIND       PRES   REMARKS
ROCHESTER      LGT RAIN  45  34  65 SE16      29.82F
RED WING       LGT RAIN  45  41  87 E8        29.89S
STANTON        RAIN      39  37  92 NE7       29.86S
DODGE CENTER   RAIN      46  39  76 SE9       29.82F
WINONA         CLOUDY    52  30  43 SE10      29.89S
AUSTIN         LGT RAIN  45  37  76 SE8       29.79F
PRESTON        CLOUDY    49  31  50 SE20G26   29.83F
$$
ABBREVIATIONS USED IN REMARKS
   TC - TEMPERATURES IN CELSIUS
  WCI - WIND CHILL INDEX
   HX - HEAT INDEX
  VSB - VISIBILITY
$$



USA.gov is the U.S. government's official web portal to all federal, state and local government web resources and services.